[[{"header":{"parameterUnit":"m.s-1","parameterCategory":1,"la1":30.2991,"la2":30.254,"lo1":-89.0895,"lo2":-89.0444,"dy":0.0017,"dx":0.0017,"nx":28,"ny":28,"refTime":"2023-09-25T21:00:00:Z","depth":0,"parameterNumber":2,"parameterNumberName":"U-component_of_WINDS"},"data":[0,0,0,0,0,0,0,0,0,0,0,0,0,0,0,0,0,0,0,0,0,0,0,0,0,0,0,0,0,0,0,0,0,0,0,0,0,0,0,0,0,0,0,0,0,0,0,0,0,0,0,0,0,0,0,0,0,0,-2.1098,-2.1098,0,-2.1111,-2.1111,-2.1111,-2.0993,-2.099,-2.0986,-2.0983,-2.1,-2.1004,-2.1007,0,0,0,0,0,0,0,0,0,0,0,0,0,-2.0974,-2.0977,-2.1098,-2.1098,-2.1098,-2.1111,-2.1111,-2.1111,-2.0994,-2.099,-2.0986,-2.0982,-2.0999,-2.1003,-2.1008,0,0,0,0,0,0,0,0,0,0,0,0,0,-2.1012,-2.0978,-2.1098,-2.1041,-2.1036,-2.1111,-2.1111,-2.1111,-2.0994,-2.0989,-2.0985,-2.098,-2.0998,-2.1003,-2.1008,-2.1139,0,0,-2.1024,-2.1027,0,0,0,0,0,0,0,0,-2.101,-2.1017,-2.1049,-2.1045,-2.104,-2.1045,-2.1073,-2.1121,-2.0996,-2.101,-2.0983,-2.0978,-2.102,-2.1023,-2.1036,-2.114,-2.1141,-2.1025,-2.1028,-2.103,-2.1032,0,0,0,0,0,0,0,-2.1008,-2.1016,-2.1103,-2.105,-2.1044,-2.1016,-2.1016,-2.1082,-2.1043,-2.1009,-2.1,-2.1003,-2.1016,-2.1031,-2.1036,-2.1141,-2.1025,-2.1029,-2.1033,-2.1035,-2.1354,-2.1359,0,0,0,0,0,0,-2.1012,-2.1014,-2.1103,-2.1104,-2.1012,-2.1022,-2.1022,-2.1048,-2.1041,-2.1036,-2.1007,-2.0998,-2.1025,-2.103,-2.1036,-2.119,-2.103,-2.1035,-2.1038,-2.1349,-2.1355,-2.1361,0,0,0,0,0,0,-2.101,-2.1021,-2.1102,-2.1056,-2.1065,-2.1029,-2.106,-2.1051,-2.1066,-2.104,-2.1033,-2.103,-2.1021,-2.1028,-2.1114,-2.1189,-2.1038,-2.1042,-2.1342,-2.1351,-2.1358,-2.1498,0,0,0,0,0,0,-2.1007,-2.1021,-2.107,-2.1058,-2.1067,-2.118,-2.1065,-2.1055,-2.1075,-2.1063,-2.106,-2.1055,-2.1018,-2.1107,-2.112,-2.1193,-2.1046,-2.1336,-2.1346,-2.1355,-2.1487,-2.151,-2.153,0,0,0,0,0,-2.1003,-2.111,-2.1073,-2.1085,-2.1128,-2.1185,-2.119,-2.1144,-2.1082,-2.1131,-2.1114,-2.1055,-2.1178,-2.1117,-2.113,-2.1206,-2.1331,-2.1343,-2.1355,-2.1477,-2.1506,-2.153,0,0,0,0,0,0,-2.1133,-2.1107,-2.1066,-2.1172,-2.1182,-2.1165,-2.1226,-2.1176,-2.1204,-2.1191,-2.1134,-2.1134,-2.123,-2.1226,-2.1159,-2.1333,-2.1244,-2.1259,-2.1332,-2.1359,-2.138,-2.138,-2.1051,0,0,0,0,0,-2.1173,-2.1221,-2.1196,-2.1292,-2.1299,-2.1262,-2.1285,-2.1248,-2.1256,-2.126,-2.1249,-2.126,-2.1301,-2.1329,-2.1365,-2.1485,-2.1483,-2.1544,-2.1565,-2.1583,-2.1598,-2.1662,-2.1689,-2.14,-2.14,-2.14,0,0,-2.1259,-2.1251,-2.1284,-2.1318,-2.1321,-2.1372,-2.1266,-2.1325,-2.1363,-2.1269,-2.135,-2.1342,-2.135,-2.1454,-2.1499,-2.1454,-2.1677,-2.1598,-2.1613,-2.1618,-2.1677,-2.1704,-2.1729,-2.1408,-2.1407,-2.1405,0,0,-2.1441,-2.1438,-2.1519,-2.1523,-2.1528,-2.1502,-2.1522,-2.1512,-2.1503,-2.1583,-2.1514,-2.1558,-2.163,-2.1639,-2.1653,-2.1837,-2.1784,-2.185,-2.1964,-2.2027,-2.2049,-2.2069,-2.2137,-2.2161,-2.1864,-2.1865,-2.1865,0,-2.1546,-2.162,-2.1566,-2.163,-2.1647,-2.1563,-2.1644,-2.1652,-2.1669,-2.1684,-2.1632,-2.172,-2.1719,-2.1824,-2.1869,-2.1883,-2.1904,-2.1851,-2.205,-2.2069,-2.2087,-2.2151,-2.2176,-2.1873,-2.1872,-2.1871,-2.187,0,-2.1751,-2.1803,-2.1867,-2.1884,-2.1909,-2.1981,-2.1939,-2.1971,-2.1932,-2.1912,-2.1995,-2.1991,-2.2025,-2.2046,-2.201,-2.2147,-2.2119,-2.206,-2.1969,-2.2124,-2.2183,-2.2207,-2.1885,-2.1882,-2.1879,-2.1877,0,0,-2.2017,-2.2002,-2.2027,-2.2034,-2.2033,-2.2073,-2.2141,-2.2173,-2.2202,-2.2216,-2.2273,-2.2335,-2.228,-2.2296,-2.2259,-2.2315,-2.2463,-2.2248,-2.2248,-2.229,-2.2615,-2.2661,-2.269,-2.2426,-2.243,-2.2434,-2.2615,0,-2.2195,-2.2311,-2.2264,-2.2384,-2.2432,-2.2352,-2.2412,-2.2418,-2.2402,-2.2441,-2.2422,-2.2467,-2.239,-2.24,-2.245,-2.2434,-2.2527,-2.242,-2.2481,-2.2483,-2.2483,-2.272,-2.2769,-2.2941,-2.2637,-2.2641,-2.2644,0,-2.242,-2.2442,-2.2567,-2.2557,-2.2575,-2.263,-2.2656,-2.2693,-2.2699,-2.2683,-2.27,-2.2651,-2.2719,-2.2627,-2.272,-2.2648,-2.2669,-2.2665,-2.267,-2.2676,-2.2575,-2.2735,-2.2994,-2.3021,-2.2679,-2.2676,-2.2674,0,-2.2604,-2.2665,-2.2747,-2.2756,-2.2746,-2.2786,-2.2784,-2.2784,-2.2807,-2.2829,-2.2843,-2.2874,-2.2892,-2.2917,-2.2878,-2.2814,-2.2978,-2.2882,-2.2968,-2.2969,-2.3008,-2.3006,-2.3276,-2.3019,-2.3018,-2.3018,-2.3017,0,-2.2809,-2.2889,-2.283,-2.2881,-2.2969,-2.2914,-2.3002,-2.2991,-2.2992,-2.3041,-2.2973,-2.302,-2.2965,-2.3007,-2.2977,-2.3059,-2.3067,-2.3057,-2.3049,-2.3065,-2.3067,-2.308,-2.3068,-2.3024,-2.3023,-2.3022,-2.302,0,-2.3031,-2.2994,-2.3079,-2.3062,-2.3059,-2.3125,-2.3111,-2.3158,-2.3135,-2.3198,-2.3209,-2.3175,-2.3221,-2.3183,-2.3229,-2.3208,-2.3318,-2.3292,-2.3317,-2.331,-2.3399,-2.3392,-2.3689,-2.3725,-2.3442,-2.3445,-2.3447,0,-2.3166,-2.3225,-2.3214,-2.3241,-2.3243,-2.3287,-2.3309,-2.3257,-2.3283,-2.3294,-2.334,-2.338,-2.341,-2.3487,-2.3467,-2.3502,-2.3477,-2.3578,-2.3482,-2.3496,-2.3481,-2.3478,-2.3485,-2.3599,-2.3602,-2.3605,-2.3607,0,-2.3409,-2.3388,-2.3421,-2.3449,-2.3477,-2.3497,-2.3511,-2.3537,-2.3484,-2.3517,-2.3563,-2.3586,-2.3631,-2.3672,-2.37,-2.3698,-2.3646,-2.3637,-2.3659,-2.3677,-2.369,-2.3686,-2.3372,-2.3631,-2.3629,-2.3627,-2.3626,-2.3625,-2.3593,-2.3642,-2.3642,-2.3682,-2.3687,-2.3702,-2.3745,-2.3727,-2.3764,-2.3796,-2.3763,-2.3819,-2.3823,-2.3854,-2.386,-2.3903,-2.3861,-2.3893,-2.3901,-2.391,-2.3924,-2.3681,-2.3908,-2.3907,-2.3906,-2.3906,-2.3905,0,-2.3834,-2.383,-2.3867,-2.3889,-2.392,-2.3865,-2.3877,-2.3908,-2.3958,-2.3965,-2.3995,-2.4048,-2.4087,-2.407,-2.4104,-2.4143,-2.412,-2.4154,-2.4152,-2.4153,-2.3959,-2.3937,-2.4172,-2.4172,-2.4172,-2.4172,-2.4172,-2.4172,-2.3964,-2.4045,-2.4024,-2.4106,-2.4101,-2.4154,-2.4167,-2.418,-2.4186,-2.4248,-2.428,-2.4267,-2.4265,-2.4299,-2.4333,-2.4326,-2.4343,-2.4388,-2.4373,-2.4193,-2.4166,-2.4141,-2.4121,-2.4391,-2.4391,-2.4564,-2.4565,-2.4567]},{"header":{"parameterUnit":"m.s-1","parameterCategory":1,"la1":30.2991,"la2":30.254,"lo1":-89.0895,"lo2":-89.0444,"dy":0.0017,"dx":0.0017,"nx":28,"ny":28,"refTime":"2023-09-25T21:00:00:Z","depth":0,"parameterNumber":3,"parameterNumberName":"V-component_of_WINDS"},"data":[0,0,0,0,0,0,0,0,0,0,0,0,0,0,0,0,0,0,0,0,0,0,0,0,0,0,0,0,0,0,0,0,0,0,0,0,0,0,0,0,0,0,0,0,0,0,0,0,0,0,0,0,0,0,0,0,0,0,-2.2882,-2.2883,0,-2.294,-2.294,-2.2941,-2.2926,-2.2925,-2.2924,-2.2923,-2.2978,-2.2981,-2.2983,0,0,0,0,0,0,0,0,0,0,0,0,0,-2.2755,-2.2758,-2.2882,-2.2883,-2.2883,-2.294,-2.294,-2.2941,-2.2926,-2.2925,-2.2924,-2.2922,-2.2978,-2.2981,-2.2984,0,0,0,0,0,0,0,0,0,0,0,0,0,-2.2811,-2.2758,-2.2882,-2.2883,-2.2884,-2.2939,-2.294,-2.2941,-2.2927,-2.2925,-2.2923,-2.2922,-2.2977,-2.298,-2.2984,-2.3041,0,0,-2.2996,-2.2997,0,0,0,0,0,0,0,0,-2.2808,-2.2816,-2.2882,-2.2883,-2.2884,-2.2924,-2.2916,-2.2975,-2.2927,-2.291,-2.2923,-2.2921,-2.2961,-2.2966,-2.2981,-2.3044,-2.3046,-2.2996,-2.2998,-2.3,-2.3001,0,0,0,0,0,0,0,-2.2804,-2.2813,-2.2905,-2.2883,-2.2884,-2.2879,-2.2885,-2.2927,-2.2944,-2.2911,-2.2911,-2.2918,-2.2962,-2.2977,-2.2982,-2.3047,-2.2996,-2.2999,-2.3002,-2.3003,-2.3159,-2.3161,0,0,0,0,0,0,-2.28,-2.281,-2.2903,-2.2906,-2.2841,-2.2883,-2.289,-2.2913,-2.2944,-2.2947,-2.2919,-2.2917,-2.2972,-2.2978,-2.2984,-2.3053,-2.3,-2.3003,-2.3006,-2.3157,-2.316,-2.3162,0,0,0,0,0,0,-2.2797,-2.2809,-2.29,-2.2858,-2.2869,-2.2887,-2.2913,-2.2915,-2.293,-2.295,-2.2952,-2.2932,-2.297,-2.2979,-2.3027,-2.3054,-2.3005,-2.3009,-2.3155,-2.3158,-2.3161,-2.3191,0,0,0,0,0,0,-2.2794,-2.2808,-2.2831,-2.2859,-2.2872,-2.2944,-2.2915,-2.2917,-2.2937,-2.2935,-2.2963,-2.2966,-2.297,-2.3022,-2.3031,-2.3059,-2.3012,-2.3153,-2.3156,-2.316,-2.3188,-2.3195,-2.3201,0,0,0,0,0,-2.2789,-2.2836,-2.2832,-2.2843,-2.2901,-2.2946,-2.2953,-2.2958,-2.294,-2.2962,-2.2975,-2.2965,-2.305,-2.3027,-2.3037,-2.3067,-2.3151,-2.3155,-2.316,-2.3185,-2.3193,-2.32,0,0,0,0,0,0,-2.281,-2.284,-2.2835,-2.2893,-2.2917,-2.2943,-2.2972,-2.2967,-2.2995,-2.2992,-2.2995,-2.3001,-2.3051,-2.3064,-2.3037,-2.3123,-2.3098,-2.3104,-2.3113,-2.3122,-2.3128,-2.3124,-2.3015,0,0,0,0,0,-2.2821,-2.2856,-2.288,-2.2929,-2.2941,-2.2954,-2.2974,-2.2976,-2.3,-2.301,-2.3026,-2.3049,-2.3081,-2.3102,-2.3132,-2.3189,-2.3195,-2.3214,-2.3221,-2.3226,-2.3232,-2.3262,-2.3271,-2.3175,-2.3175,-2.3175,0,0,-2.2845,-2.2865,-2.2887,-2.2933,-2.2952,-2.2987,-2.2963,-2.3001,-2.3027,-2.3015,-2.3063,-2.3075,-2.3101,-2.3154,-2.3178,-2.3166,-2.3259,-2.3231,-2.3235,-2.3238,-2.3267,-2.3276,-2.3284,-2.3178,-2.3178,-2.3177,0,0,-2.2905,-2.2925,-2.2967,-2.2987,-2.3016,-2.3025,-2.3035,-2.3062,-2.307,-2.3118,-2.311,-2.3139,-2.3194,-2.3213,-2.323,-2.3297,-2.3289,-2.3307,-2.334,-2.337,-2.3377,-2.3384,-2.3408,-2.3416,-2.3312,-2.3312,-2.3313,0,-2.2931,-2.2985,-2.299,-2.3029,-2.3049,-2.3041,-2.3083,-2.3101,-2.3138,-2.3152,-2.3138,-2.3207,-2.3223,-2.3281,-2.3297,-2.3311,-2.3322,-2.3304,-2.3376,-2.3383,-2.3389,-2.3412,-2.3421,-2.3314,-2.3314,-2.3314,-2.3314,0,-2.3014,-2.3051,-2.3082,-2.3119,-2.3142,-2.3183,-2.3193,-2.3215,-2.3215,-2.3224,-2.3272,-2.3292,-2.3327,-2.334,-2.3339,-2.3397,-2.3388,-2.3375,-2.335,-2.34,-2.3421,-2.343,-2.3317,-2.3317,-2.3316,-2.3315,0,0,-2.309,-2.3129,-2.314,-2.3157,-2.3188,-2.3216,-2.3256,-2.329,-2.331,-2.3335,-2.3368,-2.3414,-2.3402,-2.3421,-2.3422,-2.3448,-2.35,-2.3432,-2.3432,-2.3444,-2.3564,-2.3574,-2.3584,-2.3495,-2.3496,-2.3498,-2.3562,0,-2.3153,-2.3224,-2.323,-2.3293,-2.3327,-2.332,-2.3354,-2.3376,-2.3386,-2.3415,-2.3425,-2.3458,-2.344,-2.3451,-2.3477,-2.3488,-2.3524,-2.3484,-2.3524,-2.3525,-2.3518,-2.3595,-2.3606,-2.3665,-2.357,-2.3571,-2.3572,0,-2.3237,-2.3266,-2.3333,-2.336,-2.3374,-2.3405,-2.3437,-2.3465,-2.3489,-2.3495,-2.3516,-2.3513,-2.3552,-2.3525,-2.3579,-2.3551,-2.3568,-2.3576,-2.3578,-2.3582,-2.3552,-2.3601,-2.3684,-2.3693,-2.3586,-2.3585,-2.3584,0,-2.3285,-2.3341,-2.3389,-2.3403,-2.3435,-2.3457,-2.347,-2.3493,-2.3514,-2.3541,-2.3554,-2.3585,-2.3602,-2.3625,-2.3631,-2.361,-2.3684,-2.3657,-2.3688,-2.3688,-2.3704,-2.3703,-2.3792,-2.3715,-2.3715,-2.3715,-2.3715,0,-2.3356,-2.3397,-2.3411,-2.344,-2.3486,-2.3491,-2.3535,-2.3548,-2.3568,-2.3599,-2.3593,-2.3622,-2.3627,-2.3656,-2.3661,-2.3704,-2.3712,-2.3716,-2.3717,-2.3717,-2.3716,-2.3728,-2.3724,-2.3717,-2.3717,-2.3716,-2.3716,0,-2.3418,-2.3429,-2.348,-2.3506,-2.3513,-2.3546,-2.3567,-2.3595,-2.3604,-2.3642,-2.3651,-2.3665,-2.3699,-2.3707,-2.3747,-2.375,-2.3801,-2.3798,-2.3794,-2.3793,-2.3824,-2.3821,-2.3923,-2.3936,-2.3851,-2.3852,-2.3852,0,-2.3462,-2.3494,-2.3523,-2.3544,-2.3559,-2.3592,-2.3613,-2.3619,-2.3641,-2.3671,-2.3694,-2.3728,-2.3755,-2.381,-2.3822,-2.3853,-2.385,-2.3884,-2.3855,-2.3853,-2.385,-2.3849,-2.3852,-2.3889,-2.389,-2.3891,-2.3891,0,-2.3539,-2.3543,-2.3574,-2.3607,-2.3632,-2.3658,-2.3682,-2.3699,-2.3708,-2.3732,-2.3768,-2.3789,-2.383,-2.3864,-2.3894,-2.3907,-2.3901,-2.3901,-2.3909,-2.391,-2.3906,-2.3908,-2.3809,-2.3898,-2.3898,-2.3897,-2.3897,-2.3896,-2.3594,-2.3622,-2.3647,-2.3681,-2.37,-2.3723,-2.375,-2.3763,-2.3793,-2.3828,-2.3829,-2.3867,-2.389,-2.3931,-2.3945,-2.3975,-2.3964,-2.3977,-2.398,-2.3983,-2.3986,-2.3901,-2.398,-2.398,-2.398,-2.3979,-2.3979,0,-2.3671,-2.3687,-2.3719,-2.3754,-2.378,-2.3773,-2.3799,-2.3822,-2.3856,-2.3878,-2.3906,-2.3946,-2.3978,-2.3993,-2.4024,-2.4045,-2.4043,-2.4053,-2.4051,-2.4054,-2.3994,-2.3983,-2.4054,-2.4054,-2.4054,-2.4054,-2.4054,-2.4054,-2.3714,-2.3761,-2.3768,-2.3823,-2.3838,-2.3877,-2.3893,-2.3913,-2.3931,-2.3977,-2.4004,-2.4014,-2.4033,-2.4066,-2.4094,-2.4098,-2.411,-2.4121,-2.4123,-2.4066,-2.4059,-2.4052,-2.4041,-2.4124,-2.4124,-2.4182,-2.4182,-2.4183]}]]